Voltar ao catálogo

STARLINK-1362

AtivoComunicaçõesVLEO
NORAD 45538·PAYLOAD·🇺🇸 United States

Lançado Apr 22, 2020 de Cape Canaveral Space Force Station

Loading…

Próximas Passagens (próximas 24 horas)

TLE

AtualizadoSource: CelesTrak SupGP

Época: Sep 14, 2026, 20:30 UTC

1 45538C 20025H   26257.85465278  .00028079  00000+0  57151-3 0  2575
2 45538  53.1515 292.2167 0001959  74.9185 253.3267 15.45666758    16

Acompanhe STARLINK-1362 em tempo real com AllMySat

Download on the App Store